Location: Lane
(33.5226°N, 79.8788°W)
Time: 22:02:43
(UTC+00:00)

Vanguard 2 Rocket - Pass Details

Date: 06 October 2022
Orbit: 555 x 3321 km, 32.9° (Epoch: 28 November)

Event Time Altitude Azimuth Distance (km) Brightness Sun altitude
Rises 23:35:41 0° 208° (SSW) 7,127 11.9 -8.8°
Reaches altitude 10° 23:41:15 10° 199° (SSW) 6,236 11.4 -10.0°
Maximum altitude 23:57:48 33° 144° (SE) 4,399 10.0 -13.5°
Enters shadow 00:08:05 18° 99° (E) 4,774 9.9 -15.6°
